Mineral Point, WI

11:59 AM CST on November 20, 2017 (GMT -0600)
Iowa County

Weather History for KMRJ - September, 2013

Change the Weather History Date:

Tuesday, September 10, 2013

  Actual Average (KLNR) Record (KLNR)
Temperature  
Mean Temperature 85 °F -  
Max Temperature 95 °F 74 °F 95 °F (2013)
Min Temperature 75 °F 50 °F 39 °F (2008)
Cooling Degree Days 20    
Growing Degree Days 35 (Base 50)    
Moisture  
Dew Point 57 °F    
Average Humidity 41    
Maximum Humidity 69    
Minimum Humidity 23    
Precipitation  
Precipitation 0.00 in - - ()
Sea Level Pressure  
Sea Level Pressure 29.94 in    
Wind  
Wind Speed 10 mph (SW)    
Max Wind Speed 23 mph    
Max Gust Speed 31 mph    
Visibility 10 miles    
Events      
Averages and records for this station are not official NWS values.
T = Trace of Precipitation, MM = Missing Value Source: NWS Daily Summary

Daily Weather History Graph

Daily Weather History Graph

Search for Another Location

Airport or City:

Trip Planner

Search our weather history database for the weather conditions in past years. The results will help you decide how hot, cold, wet, or windy it might be!

Date:

Astronomy

Sep. 10, 2013 Rise Set
Actual Time 6:35 AM CDT 7:19 PM CDT
Civil Twilight 6:06 AM CDT 7:47 PM CDT
Nautical Twilight 5:32 AM CDT 8:21 PM CDT
Astronomical Twilight 4:57 AM CDT 8:56 PM CDT
Moon 12:09 PM CDT (9/10) 10:13 PM CDT (9/10)
Length of Visible Light 13h 41m
Length of Day
12h 43m
Waxing Crescent, 28% of the Moon is Illuminated
Sep 10
Waxing Crescent
Sep 12
First Quarter
Sep 19
Full
Sep 26
Last Quarter
Oct 4
New

Hourly Weather History & Observations

Time (CDT) Temp. Heat Index Dew Point Humidity Pressure Visibility Wind Dir Wind Speed Gust Speed Precip Events Conditions
12:15 AM 80.6 °F 81.5 °F 60.8 °F 51% 29.87 in 10.0 mi SW 9.2 mph - N/A   Clear
12:35 AM 80.6 °F 81.5 °F 60.8 °F 51% 29.87 in 10.0 mi SW 9.2 mph - N/A   Clear
12:55 AM 78.8 °F - 60.8 °F 54% 29.88 in 10.0 mi SW 8.1 mph - N/A   Clear
1:15 AM 80.6 °F 81.1 °F 59.0 °F 48% 29.88 in 10.0 mi SW 8.1 mph - N/A   Clear
1:35 AM 80.6 °F 81.1 °F 59.0 °F 48% 29.88 in 10.0 mi SW 10.4 mph - N/A   Clear
1:55 AM 80.6 °F 81.1 °F 59.0 °F 48% 29.89 in 10.0 mi SW 8.1 mph - N/A   Clear
2:15 AM 78.8 °F - 59.0 °F 51% 29.89 in 10.0 mi SW 5.8 mph - N/A   Clear
2:35 AM 78.8 °F - 59.0 °F 51% 29.89 in 10.0 mi SW 9.2 mph - N/A   Clear
2:55 AM 78.8 °F - 59.0 °F 51% 29.89 in 10.0 mi SW 9.2 mph - N/A   Clear
3:15 AM 78.8 °F - 59.0 °F 51% 29.90 in 10.0 mi WSW 8.1 mph - N/A   Clear
3:35 AM 78.8 °F - 59.0 °F 51% 29.91 in 10.0 mi SW 8.1 mph - N/A   Clear
3:55 AM 78.8 °F - 57.2 °F 47% 29.91 in 10.0 mi SW 8.1 mph - N/A   Clear
4:15 AM 77.0 °F - 57.2 °F 50% 29.91 in 10.0 mi SW 6.9 mph - N/A   Clear
4:35 AM 77.0 °F - 57.2 °F 50% 29.91 in 10.0 mi SW 6.9 mph - N/A   Clear
4:55 AM 77.0 °F - 57.2 °F 50% 29.92 in 10.0 mi WSW 6.9 mph - N/A   Clear
5:15 AM 77.0 °F - 57.2 °F 50% 29.92 in 10.0 mi WSW 8.1 mph - N/A   Clear
5:35 AM 77.0 °F - 55.4 °F 47% 29.92 in 10.0 mi SW 8.1 mph - N/A   Clear
5:55 AM 77.0 °F - 55.4 °F 47% 29.93 in 10.0 mi WSW 9.2 mph - N/A   Clear
6:15 AM 77.0 °F - 55.4 °F 47% 29.93 in 10.0 mi SW 9.2 mph - N/A   Clear
6:35 AM 75.2 °F - 55.4 °F 50% 29.94 in 10.0 mi SW 9.2 mph - N/A   Clear
6:55 AM 75.2 °F - 55.4 °F 50% 29.94 in 10.0 mi SW 10.4 mph - N/A   Clear
7:15 AM 75.2 °F - 57.2 °F 53% 29.94 in 10.0 mi SW 9.2 mph - N/A   Clear
7:35 AM 77.0 °F - 55.4 °F 47% 29.94 in 10.0 mi SW 11.5 mph 16.1 mph N/A   Clear
7:55 AM 78.8 °F - 57.2 °F 47% 29.95 in 10.0 mi SW 12.7 mph - N/A   Clear
8:15 AM 78.8 °F - 57.2 °F 47% 29.95 in 10.0 mi WSW 11.5 mph 18.4 mph N/A   Clear
8:35 AM 78.8 °F - 57.2 °F 47% 29.96 in 10.0 mi WSW 11.5 mph 16.1 mph N/A   Clear
8:55 AM 80.6 °F 80.8 °F 57.2 °F 45% 29.96 in 10.0 mi WSW 11.5 mph - N/A   Clear
9:15 AM 80.6 °F 80.8 °F 57.2 °F 45% 29.96 in 10.0 mi WSW 12.7 mph 17.3 mph N/A   Clear
9:35 AM 82.4 °F 82.0 °F 57.2 °F 42% 29.97 in 10.0 mi WSW 10.4 mph - N/A   Clear
9:55 AM 84.2 °F 83.5 °F 57.2 °F 40% 29.97 in 10.0 mi WSW 9.2 mph - N/A   Clear
10:15 AM 86.0 °F 84.9 °F 57.2 °F 37% 29.97 in 10.0 mi SW 15.0 mph - N/A   Clear
10:35 AM 86.0 °F 84.9 °F 57.2 °F 37% 29.97 in 10.0 mi WSW 13.8 mph - N/A   Clear
10:55 AM 87.8 °F 86.5 °F 57.2 °F 35% 29.97 in 10.0 mi WSW 9.2 mph - N/A   Clear
11:15 AM 87.8 °F 86.5 °F 57.2 °F 35% 29.97 in 10.0 mi SW 12.7 mph 19.6 mph N/A   Clear
11:35 AM 89.6 °F 87.7 °F 55.4 °F 31% 29.97 in 10.0 mi SW 12.7 mph 17.3 mph N/A   Clear
11:55 AM 89.6 °F 87.7 °F 55.4 °F 31% 29.97 in 10.0 mi WSW 12.7 mph 18.4 mph N/A   Clear
12:15 PM 89.6 °F 87.7 °F 55.4 °F 31% 29.97 in 10.0 mi WSW 10.4 mph - N/A   Clear
12:35 PM 91.4 °F 89.4 °F 55.4 °F 29% 29.97 in 10.0 mi SW 13.8 mph 19.6 mph N/A   Clear
12:55 PM 91.4 °F 89.4 °F 55.4 °F 29% 29.97 in 10.0 mi SW 13.8 mph 21.9 mph N/A   Clear
1:15 PM 91.4 °F 89.4 °F 55.4 °F 29% 29.96 in 10.0 mi SW 13.8 mph 20.7 mph N/A   Clear
1:35 PM 93.2 °F 90.8 °F 53.6 °F 26% 29.96 in 10.0 mi SW 18.4 mph 23.0 mph N/A   Clear
1:55 PM 93.2 °F 90.8 °F 53.6 °F 26% 29.95 in 10.0 mi SW 17.3 mph 25.3 mph N/A   Clear
2:15 PM 95.0 °F 92.7 °F 53.6 °F 25% 29.95 in 10.0 mi SSW 17.3 mph 24.2 mph N/A   Clear
2:35 PM 95.0 °F 92.7 °F 53.6 °F 25% 29.94 in 10.0 mi SW 17.3 mph 25.3 mph N/A   Clear
2:55 PM 95.0 °F 92.7 °F 53.6 °F 25% 29.94 in 10.0 mi SW 16.1 mph 27.6 mph N/A   Clear
3:15 PM 95.0 °F 92.7 °F 53.6 °F 25% 29.94 in 10.0 mi SW 15.0 mph 24.2 mph N/A   Clear
3:35 PM 95.0 °F 92.7 °F 53.6 °F 25% 29.94 in 10.0 mi SW 17.3 mph 26.5 mph N/A   Clear
3:55 PM 95.0 °F - 51.8 °F 23% 29.94 in 10.0 mi SW 17.3 mph 25.3 mph N/A   Clear
4:15 PM 95.0 °F - 51.8 °F 23% 29.93 in 10.0 mi WSW 23.0 mph 31.1 mph N/A   Clear
4:35 PM 95.0 °F - 51.8 °F 23% 29.93 in 10.0 mi WSW 16.1 mph 28.8 mph N/A   Clear
4:55 PM 95.0 °F - 51.8 °F 23% 29.92 in 10.0 mi SW 16.1 mph 20.7 mph N/A   Clear
5:15 PM 95.0 °F - 51.8 °F 23% 29.92 in 10.0 mi SW 17.3 mph 24.2 mph N/A   Clear
5:35 PM 95.0 °F - 51.8 °F 23% 29.92 in 10.0 mi SW 10.4 mph 20.7 mph N/A   Clear
5:55 PM 93.2 °F - 51.8 °F 24% 29.92 in 10.0 mi SW 11.5 mph 18.4 mph N/A   Clear
6:15 PM 91.4 °F 89.1 °F 53.6 °F 28% 29.93 in 10.0 mi SW 9.2 mph - N/A   Clear
6:35 PM 89.6 °F 87.7 °F 55.4 °F 31% 29.93 in 10.0 mi SSW 5.8 mph - N/A   Clear
6:55 PM 87.8 °F 86.1 °F 55.4 °F 33% 29.93 in 10.0 mi SSW 6.9 mph - N/A   Clear
7:15 PM 87.8 °F 86.5 °F 57.2 °F 35% 29.93 in 10.0 mi South 6.9 mph - N/A   Mostly Cloudy
7:35 PM 86.0 °F 85.4 °F 59.0 °F 40% 29.94 in 10.0 mi South 5.8 mph - N/A   Mostly Cloudy
7:55 PM 86.0 °F 85.4 °F 59.0 °F 40% 29.94 in 10.0 mi SSW 6.9 mph - N/A   Overcast
8:15 PM 84.2 °F 83.8 °F 59.0 °F 42% 29.95 in 10.0 mi South 5.8 mph - N/A   Overcast
8:35 PM 86.0 °F 85.4 °F 59.0 °F 40% 29.97 in 10.0 mi SW 5.8 mph - N/A   Mostly Cloudy
8:55 PM 82.4 °F 82.9 °F 60.8 °F 48% 29.97 in 10.0 mi WNW 3.5 mph - N/A   Scattered Clouds
9:15 PM 82.4 °F 82.9 °F 60.8 °F 48% 29.97 in 10.0 mi WSW 3.5 mph - N/A   Scattered Clouds
9:35 PM 80.6 °F 81.5 °F 60.8 °F 51% 29.98 in 10.0 mi WSW 4.6 mph - N/A   Clear
9:55 PM 78.8 °F - 60.8 °F 54% 29.98 in 10.0 mi WSW 4.6 mph - N/A   Clear
10:15 PM 78.8 °F - 62.6 °F 57% 29.99 in 10.0 mi West 3.5 mph - N/A   Clear
10:35 PM 78.8 °F - 62.6 °F 57% 29.99 in 10.0 mi Calm Calm - N/A   Clear
10:55 PM 77.0 °F - 62.6 °F 61% 30.00 in 10.0 mi West 3.5 mph - N/A   Clear
11:15 PM 75.2 °F - 64.4 °F 69% 30.00 in 10.0 mi NW 3.5 mph - N/A   Clear
11:35 PM 75.2 °F - 64.4 °F 69% 30.00 in 10.0 mi NW 4.6 mph - N/A   Clear
11:55 PM 77.0 °F - 64.4 °F 65% 30.00 in 10.0 mi NW 5.8 mph - N/A   Mostly Cloudy